Regional Weather Roundup
Issued by NWS Charleston, SC

Current Version | Previous Version | Text Only | Print | Product List | Glossary Off
Versions: 1 2 3 4 5 6 7 8 9 10 11 12 13 14 15 16 17 18 19 20 21 22 23 24 25 26 27 28 29 30 31 32 33 34 35 36 37 38 39 40 41 42 43 44 45 46 47 48 49 50
000 ASUS42 KCHS 292328 RWRCHS REGIONAL WEATHER ROUNDUP NATIONAL WEATHER SERVICE CHARLESTON SC 700 PM EDT FRI APR 29 2016 NOTE: "FAIR" INDICATES FEW OR NO CLOUDS BELOW 12,000 FEET WITH NO SIGNIFICANT WEATHER AND/OR OBSTRUCTIONS TO VISIBILITY. NOT ALL STATIONS ARE QUALITY CONTROLLED. USE DATA WITH CAUTION... ESPECIALLY DEWPOINT OBSERVATIONS. SCZ027-030-031-034>040-042>050-300000- ...SOUTHEAST SOUTH CAROLINA... CITY SKY/WX TMP DP RH WIND PRES REMARKS N CHARLESTON MOSUNNY 78 65 63 SE10 29.94R WATERFRONT PRK N/A 75 70 84 SE9 29.93R MOUNT PLEASANT FAIR 73 70 88 E7 29.96R JOHNS ISLAND FAIR 73 68 83 SE8 29.96R PINOPOLIS N/A 90 64 43 S5 29.84S HX 91 MONCKS CORNER FAIR 75 61 60 SE6 29.94R SUMMERVILLE FAIR 81 64 57 S3 29.95R BEAUFORT MCAS SUNNY 81 65 58 SE10 29.93R BEAUFORT ARPT FAIR 77 64 65 E6 29.93S HILTON HEAD IS SUNNY 77 68 73 SE9 29.94S WALTERBORO CLEAR 82 59 44 SE7 29.94R ALLENDALE FAIR 86 57 37 CALM 29.90S ...SOUTHERN MIDLANDS AND PEE DEE... CITY SKY/WX TMP DP RH WIND PRES REMARKS GEORGETOWN FAIR 70 64 83 E8 29.97R KINGSTREE FAIR 81 63 54 CALM 29.93R ORANGEBURG SUNNY 88 56 33 CALM 29.91S BARNWELL FAIR 90 61 37 CALM 29.91S AIKEN FAIR 84 52 32 CALM 29.95S MANNING NOT AVBL COLUMBIA MOSUNNY 88 51 28 N6 29.90S SUMTER SUNNY 85 57 38 S3 29.90R FLORENCE MOSUNNY 83 60 45 S7 29.93R MYRTLE BEACH SUNNY 72 61 68 SE8 29.97S N MYRTLE BEACH SUNNY 70 65 84 SE7 29.95S $$ GAZ063-065-086>088-099>101-113>116-118-119-134>141-150-300000- ...SOUTHEAST GEORGIA... CITY SKY/WX TMP DP RH WIND PRES REMARKS SAVANNAH ARPT MOSUNNY 83 56 39 SE12 29.92R HUNTER AAF SUNNY 82 61 48 SE7 29.90R FORT STEWART SUNNY 84 62 46 SE10 29.89R STATESBORO SUNNY 89 68 50 CALM 29.91S HX 92 SYLVANIA CLEAR 85 64 49 CALM 29.92S CLAXTON FAIR 89 61 39 CALM 29.91R ...CSRA...CENTRAL AND FAR SOUTHEAST GEORGIA... CITY SKY/WX TMP DP RH WIND PRES REMARKS THOMSON CLOUDY 82 68 63 CALM 29.97R AUGUSTA-BUSH SUNNY 85 61 44 SE3 29.90S AUGUSTA-DANIEL SUNNY 89 55 31 CALM 29.92S SWAINSBORO FAIR 86 63 45 CALM 29.93S VIDALIA SUNNY 88 59 37 CALM 29.92S EASTMAN FAIR 83 66 57 CALM 29.95R HAZLEHURST FAIR 89 56 32 CALM 29.91R ALMA SUNNY 87 64 46 CALM 29.91R WAYCROSS SUNNY 86 66 49 CALM 29.91R JESUP FAIR 88 68 51 SE3 29.92R HX 91 BAXLEY FAIR 88 57 35 CALM 29.91S BRUNSWICK SUNNY 86 68 54 SE7 29.93R SAINT SIMONS SUNNY 78 70 76 SE9 29.92S $$ SCZ027-028-034-036>038-045-046-048>050-GAZ119-141-300000- ...LAKE AND SUPPLEMENTAL COASTAL OBSERVATIONS... STATION/POSITION TIME TEMP WIND PRES WAVE SWELL AIR SEA DIR/SP/G HT/PER HT/PER/DIR (UTC) (F) (DEG/KT/KT) (MB) (FT/S) (FT/S/D) WINYAH BAY 2200 71 110/ 9 1014.0 LAKE MURRAY 2200 85 190/ 1/ 3 1012.5S ACE BASIN NERRS 2200 81 110/ 4 1014.0R FORT PULASKI 2300 78 73 1013.8R SAPELO ISLAND 2300 82 130/ 6 1013.0S $$ ANZ835-935-AMZ111-154-330-350-352-354-370-450-454-472-300000- ...C-MAN AND BUOY OBSERVATIONS... STATION/POSITION TIME TEMP WIND PRES WAVE SWELL AIR SEA DIR/SP/G HT/PER HT/PER/DIR (UTC) (F) (DEG/KT/KT) (MB) (FT/S) (FT/S/D) BUOY 41004 2250 72 72 90/ 10/ 10 1013.5F 2/ 8 2/ 8 BUOY 41008 NOT AVBL FOLLY BEACH CMAN 2300 72 120/ 10/ 11 1014.5R CAPERS NEARSHORE 2308 71 71 130/ 8/ 12 1014.1R FRIPP NEARSHORE 2308 74 74 110/ 8/ 12 1013.1R STATION/POSITION TIME TEMP WIND PRES WAVE SWELL AIR SEA DIR/SP/G HT/PER HT/PER/DIR (UTC) (F) (DEG/KT/KT) (MB) (FT/S) (FT/S/D) 5E ST. MARYS GA 2221 74 N/A 1/11 FRYING PAN BUOY 2300 69 70 60/ 6/ 8 1014.0S BUOY 41025 2250 62 74 20/ 17/ 21 1014.2R 4/ 5 2/ 60/10 CAPE LOOKOUT NC 2300 69 340/ 10/ 13 1013.9S BUOY 41002 2250 72 71 240/ 10/ 12 1013.5R 3/ 6 2/260/ 6 BUOY 41010 2220 78 77 220/ 6/ 6 1014.6R ST AUGUSTINE FL 2300 74 74 150/ 6/ 7 1014.3S $$

USA.gov is the U.S. government's official web portal to all federal, state and local government web resources and services.